Weather History for CYUS - November, 2012

Change the Weather History Date:

Tuesday, November 6, 2012

  Actual Average Record
Temperature  
Mean Temperature -10 °F -  
Max Temperature 3 °F - - ()
Min Temperature -24 °F - - ()
Degree Days  
Heating Degree Days 76    
Moisture  
Dew Point -    
Average Humidity    
Maximum Humidity    
Minimum Humidity    
Precipitation  
Precipitation 0.00 in - - ()
Sea Level Pressure  
Sea Level Pressure 30.19 in    
Wind  
Wind Speed 5 mph ()    
Max Wind Speed 12 mph    
Max Gust Speed -    
Visibility 6.0 miles    
Events      
T = Trace of Precipitation, MM = Missing Value Source: Averaged Metar Reports

Daily Weather History Graph

Daily Weather History Graph

Search for Another Location

Airport or City:

Trip Planner

Search our weather history database for the weather conditions in past years. The results will help you decide how hot, cold, wet, or windy it might be!

Date:

Astronomy

Nov. 06, 2012 Rise Set
Actual Time 8:57 AM CST 2:55 PM CST
Civil Twilight 7:43 AM CST 4:09 PM CST
Nautical Twilight 6:31 AM CST 5:21 PM CST
Astronomical Twilight 5:24 AM CST 6:28 PM CST
Moon 10:20 PM CST (11/6) 2:16 PM CST (11/6)
Length of Visible Light 8h 25m
Length of Day
5h 57m
Waning Gibbous, 53% of the Moon is Illuminated
Nov 6
Waning Gibbous
Nov 6
Last Quarter
Nov 13
New
Nov 20
First Quarter
Nov 28
Full

Hourly Weather History & Observations

Time (CST) Temp. Windchill Dew Point Humidity Pressure Visibility Wind Dir Wind Speed Gust Speed Precip Events Conditions
12:00 AM -23 °F - - % 30.12 in 9 mi SE 6.9 mph - -  
12:00 AM -23.8 °F -43.2 °F - N/A% 30.12 in 9.0 mi SE 8.1 mph - N/A   Unknown
12:35 AM -22.0 °F -35.6 °F - N/A% 30.10 in 9.0 mi SE 4.6 mph - N/A   Unknown
1:00 AM -23.8 °F -37.7 °F - N/A% 30.13 in 9.0 mi ESE 4.6 mph - N/A   Unknown
1:40 AM -23.8 °F -37.7 °F - N/A% 30.11 in 2.5 mi SE 4.6 mph - N/A   Unknown
1:45 AM -23.8 °F -39.8 °F - N/A% 30.11 in 1.2 mi SE 5.8 mph - N/A   Unknown
2:00 AM -22.0 °F -37.7 °F - N/A% 30.14 in 1.5 mi ESE 5.8 mph - N/A   Unknown
2:01 AM -22.0 °F -37.7 °F - N/A% 30.12 in 1.4 mi ESE 5.8 mph - N/A   Unknown
2:13 AM -23.8 °F -41.6 °F - N/A% 30.12 in 1.0 mi SE 6.9 mph - N/A   Unknown
2:16 AM -23.8 °F -39.8 °F - N/A% 30.12 in 0.6 mi SE 5.8 mph - N/A   Unknown
2:23 AM -22.0 °F -41.0 °F - N/A% 30.13 in 0.6 mi SSE 8.1 mph - N/A   Unknown
2:29 AM -22.0 °F -39.4 °F - N/A% 30.13 in 0.6 mi South 6.9 mph - N/A   Unknown
2:38 AM -22.0 °F -39.4 °F - N/A% 30.13 in 0.4 mi SSE 6.9 mph - N/A   Unknown
3:00 AM -24 °F - - % 30.16 in 0 mi SSE 4.6 mph - -  
3:00 AM -23.8 °F -37.7 °F - N/A% 30.16 in 0.2 mi SSE 4.6 mph - N/A   Unknown
3:16 AM -23.8 °F -39.8 °F - N/A% 30.14 in 0.6 mi SSE 5.8 mph - N/A   Unknown
3:26 AM -23.8 °F -41.6 °F - N/A% 30.14 in 0.6 mi SSE 6.9 mph - N/A   Unknown
3:34 AM -23.8 °F -39.8 °F - N/A% 30.14 in 1.0 mi SSE 5.8 mph - N/A   Unknown
3:51 AM -22.0 °F -39.4 °F - N/A% 30.14 in 1.0 mi South 6.9 mph - N/A   Unknown
4:00 AM -20.2 °F -37.3 °F - N/A% 30.17 in 1.0 mi SSW 6.9 mph - N/A   Unknown
4:15 AM -22.0 °F -33.0 °F - N/A% 30.15 in 1.1 mi SSW 3.5 mph - N/A   Unknown
4:25 AM -20.2 °F -33.5 °F - N/A% 30.15 in 1.4 mi South 4.6 mph - N/A   Unknown
4:26 AM -20.2 °F -30.9 °F - N/A% 30.15 in 1.5 mi South 3.5 mph - N/A   Unknown
4:28 AM -20.2 °F -33.5 °F - N/A% 30.15 in 1.4 mi South 4.6 mph - N/A   Unknown
4:30 AM -20.2 °F -30.9 °F - N/A% 30.15 in 1.2 mi SSE 3.5 mph - N/A   Unknown
4:42 AM -22.0 °F -37.7 °F - N/A% 30.15 in 2.5 mi SSE 5.8 mph - N/A   Unknown
4:59 AM -20.2 °F -30.9 °F - N/A% 30.16 in 9.0 mi SSW 3.5 mph - N/A   Unknown
5:00 AM -20.2 °F -30.9 °F - N/A% 30.19 in 9.0 mi SSW 3.5 mph - N/A   Unknown
5:15 AM -18.4 °F -28.9 °F - N/A% 30.15 in 3.0 mi NW 3.5 mph - N/A   Unknown
5:17 AM -18.4 °F -28.9 °F - N/A% 30.16 in 1.4 mi WNW 3.5 mph - N/A   Unknown
5:21 AM -16.6 °F -26.8 °F - N/A% 30.16 in 1.0 mi WNW 3.5 mph - N/A   Unknown
5:34 AM -18.4 °F - - N/A% 30.16 in 1.5 mi NW 2.3 mph - N/A   Unknown
5:46 AM -18.4 °F - - N/A% 30.16 in 9.0 mi North 2.3 mph - N/A   Unknown
6:00 AM -18 °F - - % 30.19 in 9 mi NE 2.3 mph - -  
7:00 AM -16.6 °F -31.3 °F - N/A% 30.20 in 9.0 mi SE 5.8 mph - N/A   Unknown
7:23 AM -14.8 °F -27.2 °F - N/A% 30.17 in 9.0 mi SSE 4.6 mph - N/A   Unknown
7:34 AM -13.0 °F -27.0 °F - N/A% 30.18 in 9.0 mi South 5.8 mph - N/A   Unknown
7:55 AM -13.0 °F -22.7 °F - N/A% 30.18 in 9.0 mi South 3.5 mph - N/A   Unknown
8:00 AM -11.2 °F -20.6 °F - N/A% 30.21 in 9.0 mi South 3.5 mph - N/A   Unknown
8:02 AM -11.2 °F -20.6 °F - N/A% 30.18 in 9.0 mi South 3.5 mph - N/A   Unknown
9:00 AM -9 °F - - % 30.21 in 9 mi South 4.6 mph - -  
9:00 AM -9.4 °F -22.7 °F - N/A% 30.21 in 9.0 mi SSW 5.8 mph - N/A   Unknown
9:03 AM -9.4 °F -20.9 °F - N/A% 30.19 in 9.0 mi SSW 4.6 mph - N/A   Unknown
9:43 AM -2.2 °F -14.2 °F - N/A% 30.19 in 9.0 mi WSW 5.8 mph - N/A   Unknown
10:00 AM -0.4 °F -15.7 °F - N/A% 30.21 in 9.0 mi West 9.2 mph - N/A   Unknown
11:00 AM -2.2 °F -15.6 °F - N/A% 30.23 in 9.0 mi WNW 6.9 mph - N/A   Unknown
12:00 PM -4 °F - - % 30.23 in 9 mi WNW 8.1 mph - -  
12:00 PM -4.0 °F -20.2 °F - N/A% 30.23 in 9.0 mi WNW 9.2 mph - N/A   Unknown
1:00 PM -4.0 °F -20.2 °F - N/A% 30.25 in 9.0 mi WNW 9.2 mph - N/A   Unknown
1:46 PM -2.2 °F -19.9 °F - N/A% 30.22 in 9.0 mi NW 11.5 mph - N/A   Unknown
1:59 PM -4.0 °F -20.2 °F - N/A% 30.23 in 9.0 mi NW 9.2 mph - N/A   Unknown
2:00 PM -4.0 °F -21.2 °F - N/A% 30.25 in 9.0 mi NW 10.4 mph - N/A   Unknown
3:00 PM 0 °F - - % 30.25 in 9 mi North 10.4 mph - -  
3:00 PM 1.4 °F -14.5 °F - N/A% 30.25 in 9.0 mi North 10.4 mph - N/A   Unknown
4:00 PM 1.4 °F -12.5 °F - N/A% 30.26 in 9.0 mi North 8.1 mph - N/A   Unknown
4:20 PM 1.4 °F -11.3 °F - N/A% 30.23 in 9.0 mi North 6.9 mph - N/A   Unknown
5:00 PM 1.4 °F -6.2 °F - N/A% 30.26 in 9.0 mi West 3.5 mph - N/A   Unknown
5:37 PM 1.4 °F -9.9 °F - N/A% 30.23 in 9.0 mi SSW 5.8 mph - N/A   Unknown
6:00 PM 2 °F - - % 30.26 in 9 mi SW 5.8 mph - -  
6:00 PM 1.4 °F -11.3 °F - N/A% 30.26 in 9.0 mi SW 6.9 mph - N/A   Unknown
6:17 PM 3.2 °F - - N/A% 30.23 in 9.0 mi West 2.3 mph - N/A   Unknown
6:47 PM -2.2 °F -12.5 °F - N/A% 30.24 in 9.0 mi North 4.6 mph - N/A   Unknown
6:51 PM -2.2 °F -12.5 °F - N/A% 30.24 in 9.0 mi North 4.6 mph - N/A   Unknown
7:00 PM -2.2 °F -10.4 °F - N/A% 30.27 in 9.0 mi North 3.5 mph - N/A   Unknown
7:30 PM -2.2 °F -14.2 °F - N/A% 30.24 in 9.0 mi North 5.8 mph - N/A   Unknown
8:00 PM -2.2 °F -12.5 °F - N/A% 30.26 in 9.0 mi North 4.6 mph - N/A   Unknown
9:00 PM -3 °F - - % 30.26 in 9 mi North 4.6 mph - -  
9:00 PM -2.2 °F -10.4 °F - N/A% 30.26 in 9.0 mi North 3.5 mph - N/A   Unknown
10:00 PM -2.2 °F -12.5 °F - N/A% 30.26 in 6.0 mi North 4.6 mph - N/A   Unknown
11:00 PM -2.2 °F -10.4 °F - N/A% 30.26 in 9.0 mi North 3.5 mph - N/A   Unknown